This demonstration page uses our WeatherBlox Daily Observations layout. Learn more.

41.55636, -103.73856

Hourly Observations for April 10, 2015

Temp ( °F °C ) Dew Point ( °F °C ) Humidity (%) Winds ( mph kmh ) Pressure ( in mb ) Visibility ( mi km ) Precip ( " mm )
12:53 am 00:53 Clear 35 1.7 25 -3.9 67 67 Calm 30.16 1021 10 16.0934 0 0
1:53 am 01:53 Clear 31 -0.6 27 -2.8 85 85 NNE 5 7 30.15 1021 10 16.0934 0 0
2:53 am 02:53 Clear 31 -0.6 26 -3.3 82 82 NNE 7 11 30.13 1020 10 16.0934 0 0
3:53 am 03:53 Clear 31 -0.6 26 -3.3 82 82 NNE 7 11 30.12 1020 10 16.0934 0 0
4:53 am 04:53 Clear 30 -1.1 26 -3.3 85 85 NNE 6 9 30.12 1020 10 16.0934 0 0
5:53 am 05:53 Clear 30 -1.1 24 -4.4 79 79 Calm 30.12 1020 10 16.0934 0 0
6:53 am 06:53 Sunny 31 -0.6 26 -3.3 82 82 Calm 30.13 1020 10 16.0934 0 0
7:53 am 07:53 Sunny 35 1.7 30 -1.1 82 82 ESE 3 6 30.14 1021 10 16.0934 0 0
8:53 am 08:53 Sunny 40 4.4 32 0 73 73 ESE 6 9 30.14 1021 10 16.0934 0 0
9:53 am 09:53 Sunny 47 8.3 35 1.7 63 63 E 3 6 30.12 1020 10 16.0934 0 0
10:53 am 10:53 Sunny 53 11.7 38 3.3 57 57 Calm 30.11 1020 10 16.0934 0 0
11:53 am 11:53 Sunny 58 14.4 34 1.1 41 41 VRB 3 6 30.06 1018 10 16.0934 0 0
12:53 pm 12:53 Sunny 61 16.1 31 -0.6 32 32 VRB 3 6 30.03 1017 10 16.0934 0 0
1:53 pm 13:53 Sunny 62 16.7 34 1.1 35 35 SSE 5 7 30.01 1016 10 16.0934 0 0
2:53 pm 14:53 Mostly Sunny 65 18.3 33 0.6 31 31 VRB 5 7 29.98 1015 10 16.0934 0 0
3:53 pm 15:53 Sunny 66 18.9 30 -1.1 26 26 Calm 29.96 1015 10 16.0934 0 0
4:53 pm 16:53 Sunny 64 17.8 30 -1.1 28 28 ESE 3 6 29.95 1014 10 16.0934 0 0
5:53 pm 17:53 Sunny 63 17.2 29 -1.7 28 28 ESE 10 17 29.94 1014 10 16.0934 0 0
6:53 pm 18:53 Sunny 59 15 36 2.2 42 42 SE 10 17 29.95 1014 10 16.0934 0 0
7:53 pm 19:53 Clear 56 13.3 35 1.7 46 46 SE 10 17 29.94 1014 10 16.0934 0 0
8:53 pm 20:53 Clear 52 11.1 34 1.1 50 50 SE 7 11 29.95 1014 10 16.0934 0 0
9:53 pm 21:53 Clear 46 7.8 36 2.2 68 68 ESE 6 9 29.95 1014 10 16.0934 0 0
10:53 pm 22:53 Clear 46 7.8 35 1.7 66 66 E 9 15 29.93 1014 10 16.0934 0 0
11:53 pm 23:53 Clear 46 7.8 35 1.7 66 66 ESE 10 17 29.91 1013 10 16.0934 0 0

Powered by AerisWeather